This demonstration page uses our WeatherBlox Daily Observations layout. Learn more.

Left ArrowRight Arrow

39.08367, -84.50855

Hourly Observations for April 13, 2022

Temp ( °F °C ) Dew Point ( °F °C ) Humidity (%) Winds ( mph kmh ) Pressure ( in mb ) Visibility ( mi km ) Precip ( " mm )
12:53 am 00:53 Clear 63 17.2 59 15 87 87 S 7 11 29.90 1013 10 16 0.00 0.00
1:53 am 01:53 Clear 64 17.8 60 15.6 87 87 SSW 9 15 29.87 1011 10 16 0.00 0.00
2:53 am 02:53 Clear 64 17.8 59 15 84 84 S 13 20 29.84 1011 10 16 0.00 0.00
3:53 am 03:53 Clear 63 17.2 59 15 87 87 SSW 8 13 29.85 1011 10 16 0.00 0.00
4:53 am 04:53 Clear 62 16.7 58 14.4 86 86 SSW 5 7 29.84 1011 10 16 0.00 0.00
5:53 am 05:53 Clear 62 16.7 58 14.4 86 86 S 5 7 29.85 1011 10 16 0.00 0.00
6:53 am 06:53 Clear 60 15.6 58 14.4 93 93 S 3 6 29.86 1011 10 16 0.00 0.00
7:53 am 07:53 Mostly Sunny 62 16.7 58 14.4 86 86 SSW 5 7 29.85 1011 10 16 0.00 0.00
8:53 am 08:53 Cloudy with Light Rain 64 17.8 59 15 84 84 S 8 13 29.85 1011 8 13 0.00 0.00
9:53 am 09:53 Cloudy with Light Rain 63 17.2 61 16.1 93 93 S 13 20 29.86 1011 5 8 0.04 1.02
10:39 am 10:39 Cloudy with Heavy Rain 63 17.2 61 16.1 93 93 SSE 10 17 29.85 1011 2 3 0.07 1.78
10:53 am 10:53 Cloudy with Rain 63 17.2 61 16.1 93 93 S 9 15 29.85 1011 2 3 0.11 2.79
11:04 am 11:04 Cloudy with Light Rain 63 17.2 61 16.1 93 93 S 8 13 29.84 1011 4 6 0.02 0.51
11:53 am 11:53 Cloudy with Light Rain 64 17.8 62 16.7 93 93 S 6 9 29.82 1010 5 8 0.07 1.78
12:53 pm 12:53 Mostly Sunny 68 20 62 16.7 81 81 S 12 19 29.78 1009 10 16 0.00 0.00
1:53 pm 13:53 Mostly Cloudy 72 22.2 60 15.6 66 66 S 10 17 29.75 1007 10 16 0.00 0.00
2:53 pm 14:53 Cloudy with Light Rain 69 20.6 59 15 70 70 WSW 10 17 29.75 1008 9 14 0.00 0.00
3:53 pm 15:53 Cloudy with Light Rain 67 19.4 61 16.1 81 81 SSW 15 24 29.78 1008 10 16 0.01 0.25
4:53 pm 16:53 Cloudy with Light Rain 65 18.3 62 16.7 90 90 S 8 13 29.73 1007 10 16 0.01 0.25
5:53 pm 17:53 Partly Cloudy 68 20 63 17.2 84 84 S 13 20 29.73 1007 10 16 0.00 0.00
6:53 pm 18:53 Partly Cloudy 67 19.4 62 16.7 84 84 SSE 8 13 29.70 1006 10 16 0.01 0.25
7:53 pm 19:53 Mostly Cloudy 67 19.4 61 16.1 81 81 SSE 6 9 29.67 1005 10 16 0.00 0.00
8:53 pm 20:53 Cloudy 67 19.4 61 16.1 81 81 SSE 6 9 29.62 1003 10 16 0.00 0.00
9:38 pm 21:38 Cloudy with Heavy Rain 64 17.8 63 17.2 96 96 W 16 26 29.70 1006 2 2 0.19 4.83
9:43 pm 21:43 Cloudy with Heavy Rain 62 16.7 62 16.7 100 100 W 17 28 29.69 1006 1 1 0.33 8.38
9:49 pm 21:49 Cloudy with Heavy Rain 61 16 61 16 100 100 WSW 16 26 29.71 1006 1 2 0.38 9.65
9:53 pm 21:53 Cloudy with Nearby Thunderstorms 61 16.1 60 15.6 97 97 WSW 18 30 29.72 1006 2 3 0.42 10.67
10:09 pm 22:09 Cloudy with Rain 61 16.1 59 15 93 93 WSW 15 24 29.72 1006 3 5 0.08 2.03
10:20 pm 22:20 Cloudy with Nearby Thunderstorms 61 16.1 59 15 93 93 WSW 16 26 29.74 1007 5 8 0.11 2.79
10:35 pm 22:35 Cloudy with Rain 61 16.1 59 15 93 93 WSW 10 17 29.75 1007 5 8 0.16 4.06
10:53 pm 22:53 Cloudy with Rain 60 15.6 59 15 96 96 SW 8 13 29.75 1008 4 6 0.24 6.10
11:53 pm 23:53 Cloudy with Light Rain 60 15.6 59 15 96 96 SSE 8 13 29.70 1006 10 16 0.05 1.27

Powered by AerisWeather